Location: Freiburg+im+Breisgau
(48.0359°N, 7.8195°E)
Time: 19:33:55
(UTC+01:00)

N. Korean satellite - Visible Passes

Search period start: 22 November 2017 00:00
Search period end: 02 December 2017 00:00
Orbit: 460 x 514 km, 97.2° (Epoch: 21 November)

Date Brightness Start Highest point End Pass type
(mag) Time Alt. Az. Time Alt. Az. Time Alt. Az.
22 Nov 9.9 06:19:37 10° NE 06:21:58 16° E 06:24:20 10° SE visible
22 Nov 6.8 18:31:30 10° S 18:35:01 69° WSW 18:38:37 10° NNW visible
23 Nov 6.5 18:08:03 10° SSE 18:11:32 60° ENE 18:15:07 10° N visible
23 Nov 10.1 19:44:33 10° WSW 19:45:29 11° W 19:46:25 10° WNW visible
24 Nov 7.8 07:05:06 10° NNE 07:08:47 50° E 07:12:27 10° S visible
24 Nov 7.2 17:44:57 10° SE 17:48:08 32° ENE 17:51:24 10° N visible
24 Nov 9.3 19:19:06 10° SW 19:21:45 20° W 19:24:27 10° NW visible
25 Nov 9.1 06:41:55 10° NE 06:45:12 27° E 06:48:27 10° SSE visible
25 Nov 8.0 17:22:15 10° ESE 17:24:49 19° ENE 17:27:25 10° NNE visible
25 Nov 8.2 18:54:49 10° SSW 18:58:06 35° W 19:01:28 10° NNW visible
26 Nov 9.9 06:19:09 10° NE 06:21:31 16° E 06:23:53 10° SE visible
26 Nov 6.8 18:30:59 10° S 18:34:31 69° WSW 18:38:10 10° NNW visible
27 Nov 6.5 18:07:30 10° SSE 18:11:02 60° ENE 18:14:39 10° N visible
27 Nov 10.1 19:43:54 10° WSW 19:44:58 11° W 19:46:03 10° WNW visible
28 Nov 7.8 07:04:36 10° NNE 07:08:18 50° E 07:11:58 10° S visible
28 Nov 7.3 17:44:24 10° SE 17:47:37 32° ENE 17:50:55 10° N visible
28 Nov 9.3 19:18:32 10° SW 19:21:14 20° W 19:23:59 10° NW visible
29 Nov 9.1 06:41:25 10° NE 06:44:41 27° E 06:47:57 10° SSE visible
29 Nov 8.0 17:21:41 10° ESE 17:24:17 19° ENE 17:26:55 10° NNE visible
29 Nov 8.2 18:54:13 10° SSW 18:57:33 36° W 19:00:58 10° NNW visible
30 Nov 9.9 06:18:38 10° NE 06:20:59 16° E 06:23:21 10° SE visible
30 Nov 6.8 18:30:23 10° S 18:33:58 70° WSW 18:37:39 10° NNW visible
01 Dec 6.5 18:06:54 10° SSE 18:10:27 60° ENE 18:14:07 10° N visible
01 Dec 10.1 19:43:10 10° WSW 19:44:23 11° W 19:45:37 10° WNW visible
